Chattanooga, TN

11:48 AM EDT on October 19, 2017 (GMT -0400)
Lovell

Weather History for KCHA - June, 2013

Change the Weather History Date:

Sunday, June 23, 2013

  Actual Average Record
Temperature  
Mean Temperature 78 °F 78 °F  
Max Temperature 88 °F 89 °F 100 °F (1988)
Min Temperature 68 °F 68 °F 52 °F (1972)
Cooling Degree Days 13 13  
Month to date cooling degree days 289 249  
Year to date cooling degree days 465 445  
Since 1 June cooling degree days 289 249  
Growing Degree Days 28 (Base 50)    
Moisture  
Dew Point 67 °F    
Average Humidity 70    
Maximum Humidity 90    
Minimum Humidity 50    
Precipitation  
Precipitation 0.00 in 0.14 in 1.76 in (1929)
Month to date precipitation 3.79 3.04  
Year to date precipitation 38.46 25.86  
Snow  
Snow 0.00 in - - ()
Month to date snowfall 0.0  
Since 1 June snowfall 0.0  
Snow Depth 0.00 in    
Sea Level Pressure  
Sea Level Pressure 30.13 in    
Wind  
Wind Speed 3 mph (SSE)    
Max Wind Speed 13 mph    
Max Gust Speed 18 mph    
Visibility 10 miles    
Events Fog    
T = Trace of Precipitation, MM = Missing Value Source: NWS Daily Summary

Daily Weather History Graph

Daily Weather History Graph

Search for Another Location

Airport or City:

Trip Planner

Search our weather history database for the weather conditions in past years. The results will help you decide how hot, cold, wet, or windy it might be!

Date:

Astronomy

Jun. 23, 2013 Rise Set
Actual Time 6:27 AM EDT 8:58 PM EDT
Civil Twilight 5:57 AM EDT 9:28 PM EDT
Nautical Twilight 5:21 AM EDT 10:05 PM EDT
Astronomical Twilight 4:40 AM EDT 10:45 PM EDT
Moon 9:13 PM EDT (6/23) 6:41 AM EDT (6/23)
Length of Visible Light 15h 30m
Length of Day
14h 30m
Full, 100% of the Moon is Illuminated
Jun 23
Full
Jun 30
Last Quarter
Jul 8
New
Jul 15
First Quarter
Jul 22
Full

Hourly Weather History & Observations

Time (EDT) Temp. Heat Index Dew Point Humidity Pressure Visibility Wind Dir Wind Speed Gust Speed Precip Events Conditions
12:53 AM 73.0 °F - 66.0 °F 79% 30.15 in 10.0 mi Calm Calm - N/A   Clear
1:53 AM 71.1 °F - 66.9 °F 87% 30.13 in 10.0 mi SSW 4.6 mph - N/A   Clear
2:53 AM 71.1 °F - 66.0 °F 84% 30.10 in 10.0 mi Calm Calm - N/A   Clear
3:53 AM 69.1 °F - 66.0 °F 90% 30.09 in 10.0 mi Calm Calm - N/A   Clear
4:53 AM 69.1 °F - 64.9 °F 87% 30.10 in 10.0 mi Calm Calm - N/A   Clear
5:53 AM 68.0 °F - 64.9 °F 90% 30.13 in 10.0 mi Calm Calm - N/A   Scattered Clouds
6:53 AM 68.0 °F - 64.9 °F 90% 30.15 in 10.0 mi Calm Calm - N/A Fog Patches of Fog
7:53 AM 71.1 °F - 66.9 °F 87% 30.17 in 10.0 mi Calm Calm - N/A   Scattered Clouds
8:53 AM 73.9 °F - 66.0 °F 76% 30.19 in 10.0 mi Calm Calm - N/A   Scattered Clouds
9:53 AM 78.1 °F - 66.9 °F 68% 30.19 in 10.0 mi Calm Calm - N/A   Scattered Clouds
10:53 AM 80.1 °F 82.3 °F 66.9 °F 64% 30.19 in 10.0 mi Calm Calm - N/A   Scattered Clouds
11:53 AM 82.0 °F 84.5 °F 66.9 °F 60% 30.18 in 10.0 mi Variable 3.5 mph - N/A   Mostly Cloudy
12:53 PM 82.9 °F 85.4 °F 66.9 °F 58% 30.17 in 10.0 mi SE 9.2 mph - N/A   Mostly Cloudy
1:53 PM 84.0 °F 87.0 °F 68.0 °F 58% 30.13 in 10.0 mi SSE 6.9 mph - N/A   Mostly Cloudy
2:53 PM 84.0 °F 86.3 °F 66.0 °F 55% 30.12 in 10.0 mi SSE 4.6 mph - N/A   Mostly Cloudy
3:53 PM 87.1 °F 89.2 °F 66.0 °F 49% 30.10 in 10.0 mi South 8.1 mph - N/A   Mostly Cloudy
4:53 PM 86.0 °F 88.8 °F 66.9 °F 53% 30.10 in 10.0 mi South 4.6 mph - N/A   Mostly Cloudy
5:53 PM 86.0 °F 88.2 °F 66.0 °F 51% 30.08 in 10.0 mi South 5.8 mph - N/A   Mostly Cloudy
6:53 PM 84.9 °F 87.1 °F 66.0 °F 53% 30.07 in 10.0 mi SSE 4.6 mph - N/A   Mostly Cloudy
7:53 PM 84.9 °F 87.6 °F 66.9 °F 55% 30.09 in 10.0 mi South 5.8 mph - N/A   Mostly Cloudy
8:53 PM 82.9 °F 85.0 °F 66.0 °F 56% 30.09 in 10.0 mi SSE 3.5 mph - N/A   Mostly Cloudy
9:53 PM 81.0 °F 83.3 °F 66.9 °F 62% 30.10 in 10.0 mi Calm Calm - N/A   Mostly Cloudy
10:53 PM 77.0 °F - 68.0 °F 74% 30.13 in 9.0 mi Calm Calm - N/A   Scattered Clouds
11:53 PM 73.9 °F - 69.1 °F 85% 30.15 in 9.0 mi Calm Calm - N/A Fog Patches of Fog